[[{"header":{"parameterUnit":"m.s-1","parameterCategory":1,"la1":30.2991,"la2":30.254,"lo1":-89.0895,"lo2":-89.0444,"dy":0.0017,"dx":0.0017,"nx":28,"ny":28,"refTime":"2024-08-19T09:00:00:Z","depth":0,"parameterNumber":2,"parameterNumberName":"U-component_of_WINDS"},"data":[0,0,0,0,0,0,0,0,0,0,0,0,0,0,0,0,0,0,0,0,0,0,0,0,0,0,0,0,0,0,0,0,0,0,0,0,0,0,0,0,0,0,0,0,0,0,0,0,0,0,0,0,0,0,0,0,0,0,-1.925,-1.9251,0,-1.935,-1.9351,-1.9352,-1.9339,-1.9337,-1.9335,-1.9334,-1.9437,-1.9441,-1.9445,0,0,0,0,0,0,0,0,0,0,0,0,0,-1.9048,-1.9052,-1.925,-1.9252,-1.9253,-1.935,-1.9351,-1.9353,-1.9339,-1.9337,-1.9335,-1.9333,-1.9435,-1.944,-1.9446,0,0,0,0,0,0,0,0,0,0,0,0,0,-1.9141,-1.9053,-1.925,-1.9258,-1.9259,-1.935,-1.9351,-1.9353,-1.9339,-1.9337,-1.9334,-1.9332,-1.9434,-1.944,-1.9446,-1.9536,0,0,-1.9466,-1.9469,0,0,0,0,0,0,0,0,-1.9136,-1.9148,-1.9255,-1.9257,-1.9259,-1.9329,-1.9318,-1.9414,-1.934,-1.9309,-1.9334,-1.9331,-1.9403,-1.9412,-1.9436,-1.9541,-1.9545,-1.9467,-1.9471,-1.9473,-1.9475,0,0,0,0,0,0,0,-1.9129,-1.9144,-1.929,-1.9257,-1.9259,-1.9256,-1.9266,-1.9336,-1.9369,-1.9311,-1.9311,-1.9323,-1.9404,-1.943,-1.9438,-1.9547,-1.9466,-1.9472,-1.9476,-1.9479,-1.973,-1.9733,0,0,0,0,0,0,-1.9121,-1.9139,-1.9287,-1.9293,-1.919,-1.9262,-1.9273,-1.9309,-1.9368,-1.9375,-1.9325,-1.9322,-1.942,-1.9431,-1.9442,-1.9552,-1.9473,-1.9479,-1.9483,-1.9727,-1.9731,-1.9734,0,0,0,0,0,0,-1.9116,-1.9134,-1.9283,-1.9216,-1.9234,-1.9268,-1.9308,-1.9313,-1.9339,-1.9378,-1.9384,-1.9345,-1.9419,-1.9433,-1.9513,-1.9555,-1.9482,-1.9488,-1.9724,-1.9728,-1.9732,-1.9771,0,0,0,0,0,0,-1.9111,-1.9133,-1.9167,-1.9216,-1.9238,-1.9352,-1.9311,-1.9316,-1.935,-1.9347,-1.9399,-1.9405,-1.9418,-1.9503,-1.9519,-1.9563,-1.9493,-1.972,-1.9726,-1.9731,-1.9767,-1.9776,-1.9785,0,0,0,0,0,-1.9103,-1.9174,-1.9169,-1.9187,-1.9282,-1.9354,-1.9367,-1.9379,-1.9353,-1.9389,-1.9413,-1.9404,-1.9547,-1.9511,-1.9529,-1.9575,-1.9718,-1.9724,-1.973,-1.9762,-1.9775,-1.9785,0,0,0,0,0,0,-1.913,-1.9181,-1.9176,-1.9265,-1.9305,-1.9352,-1.9397,-1.9392,-1.9441,-1.9436,-1.9449,-1.9461,-1.9542,-1.9566,-1.9526,-1.9665,-1.9629,-1.9639,-1.9647,-1.9659,-1.9668,-1.9662,-1.9498,0,0,0,0,0,-1.9146,-1.9201,-1.9242,-1.9317,-1.9337,-1.9363,-1.9395,-1.9401,-1.9444,-1.9462,-1.9492,-1.9534,-1.9589,-1.9625,-1.9677,-1.9769,-1.978,-1.9809,-1.9818,-1.9826,-1.9835,-1.9886,-1.99,-1.9754,-1.9754,-1.9754,0,0,-1.918,-1.9215,-1.9249,-1.9323,-1.9355,-1.9412,-1.9378,-1.9439,-1.9482,-1.9471,-1.9549,-1.9572,-1.962,-1.9706,-1.9746,-1.9729,-1.9877,-1.9834,-1.9839,-1.9845,-1.9894,-1.9908,-1.992,-1.9759,-1.9758,-1.9757,0,0,-1.9272,-1.9303,-1.9369,-1.9401,-1.945,-1.9467,-1.9482,-1.953,-1.9545,-1.9623,-1.9616,-1.9666,-1.9759,-1.9794,-1.9824,-1.9926,-1.992,-1.9943,-1.9992,-2.0041,-2.0053,-2.0063,-2.0101,-2.0115,-1.9951,-1.9951,-1.9952,0,-1.9309,-1.9394,-1.9403,-1.9466,-1.9499,-1.949,-1.9557,-1.9588,-1.9652,-1.9675,-1.9654,-1.9771,-1.9803,-1.9898,-1.9922,-1.9946,-1.9965,-1.9938,-2.005,-2.0061,-2.0071,-2.0107,-2.0121,-1.9954,-1.9954,-1.9954,-1.9953,0,-1.9437,-1.9496,-1.9543,-1.9604,-1.9642,-1.9706,-1.9726,-1.9763,-1.9765,-1.9784,-1.9863,-1.99,-1.996,-1.9982,-1.9984,-2.0077,-2.0065,-2.0047,-2.0012,-2.0087,-2.0122,-2.0136,-1.9958,-1.9957,-1.9956,-1.9956,0,0,-1.9552,-1.9616,-1.9633,-1.9661,-1.9713,-1.9759,-1.9822,-1.988,-1.9913,-1.9955,-2.001,-2.0088,-2.0072,-2.0105,-2.0111,-2.0154,-2.0235,-2.0131,-2.0133,-2.0151,-2.034,-2.0356,-2.0372,-2.0229,-2.0232,-2.0234,-2.0337,0,-1.965,-1.9763,-1.9773,-1.9874,-1.9928,-1.992,-1.9975,-2.0013,-2.0031,-2.0081,-2.01,-2.0157,-2.013,-2.015,-2.0192,-2.0216,-2.0274,-2.0209,-2.0281,-2.0284,-2.0273,-2.0389,-2.0406,-2.0501,-2.0351,-2.0353,-2.0354,0,-1.9781,-1.9828,-1.9935,-1.9979,-2.0002,-2.0052,-2.0105,-2.0152,-2.0194,-2.0205,-2.0241,-2.0241,-2.0306,-2.0266,-2.0356,-2.0312,-2.0341,-2.0357,-2.0361,-2.0371,-2.0326,-2.0405,-2.0532,-2.0547,-2.0376,-2.0374,-2.0372,0,-1.9857,-1.9946,-2.0022,-2.0045,-2.0098,-2.0133,-2.0157,-2.0196,-2.023,-2.0277,-2.0299,-2.0352,-2.0382,-2.0424,-2.0438,-2.0407,-2.0528,-2.0488,-2.054,-2.054,-2.0568,-2.0567,-2.0705,-2.0583,-2.0583,-2.0582,-2.0582,0,-1.9968,-2.0034,-2.0056,-2.0103,-2.0177,-2.0186,-2.0259,-2.028,-2.0315,-2.0366,-2.0361,-2.0409,-2.0423,-2.0474,-2.0484,-2.0559,-2.0571,-2.0582,-2.0585,-2.0585,-2.0584,-2.0606,-2.0601,-2.0586,-2.0585,-2.0585,-2.0584,0,-2.0066,-2.0083,-2.0166,-2.0208,-2.022,-2.0273,-2.0309,-2.0354,-2.037,-2.0435,-2.045,-2.0477,-2.0535,-2.0553,-2.0623,-2.063,-2.0718,-2.0713,-2.0704,-2.0705,-2.0756,-2.0752,-2.0916,-2.0939,-2.0799,-2.0801,-2.0802,0,-2.0137,-2.0188,-2.0235,-2.0269,-2.0294,-2.0348,-2.0382,-2.0393,-2.0429,-2.048,-2.0519,-2.0577,-2.0624,-2.0718,-2.0744,-2.0798,-2.0796,-2.0849,-2.0804,-2.0802,-2.0799,-2.0797,-2.0803,-2.0859,-2.0861,-2.0862,-2.0863,0,-2.0262,-2.0268,-2.0318,-2.0371,-2.0412,-2.0454,-2.0494,-2.0522,-2.0538,-2.0579,-2.0638,-2.0675,-2.0746,-2.0804,-2.0858,-2.0883,-2.0876,-2.0876,-2.0891,-2.0893,-2.0886,-2.0893,-2.073,-2.0873,-2.0872,-2.0871,-2.0871,-2.087,-2.0351,-2.0396,-2.0436,-2.0492,-2.0523,-2.056,-2.0605,-2.0626,-2.0676,-2.0735,-2.0738,-2.0803,-2.0843,-2.0915,-2.0942,-2.0993,-2.0977,-2.0999,-2.1005,-2.1011,-2.1016,-2.0875,-2.1002,-2.1002,-2.1002,-2.1002,-2.1001,0,-2.0478,-2.0503,-2.0554,-2.061,-2.0654,-2.0641,-2.0685,-2.0722,-2.078,-2.0817,-2.0863,-2.0932,-2.0987,-2.1016,-2.1071,-2.1107,-2.1105,-2.1121,-2.112,-2.1126,-2.1026,-2.1008,-2.1122,-2.1122,-2.1122,-2.1122,-2.1122,-2.1122,-2.0549,-2.0625,-2.0635,-2.0725,-2.075,-2.0813,-2.0839,-2.0874,-2.0904,-2.0981,-2.1027,-2.1045,-2.1079,-2.1136,-2.1186,-2.1193,-2.1215,-2.1233,-2.1239,-2.1145,-2.1133,-2.1122,-2.1105,-2.1237,-2.1238,-2.1335,-2.1336,-2.1337]},{"header":{"parameterUnit":"m.s-1","parameterCategory":1,"la1":30.2991,"la2":30.254,"lo1":-89.0895,"lo2":-89.0444,"dy":0.0017,"dx":0.0017,"nx":28,"ny":28,"refTime":"2024-08-19T09:00:00:Z","depth":0,"parameterNumber":3,"parameterNumberName":"V-component_of_WINDS"},"data":[0,0,0,0,0,0,0,0,0,0,0,0,0,0,0,0,0,0,0,0,0,0,0,0,0,0,0,0,0,0,0,0,0,0,0,0,0,0,0,0,0,0,0,0,0,0,0,0,0,0,0,0,0,0,0,0,0,0,-2.7726,-2.7726,0,-2.7711,-2.7711,-2.7711,-2.7662,-2.7661,-2.766,-2.7659,-2.7645,-2.7646,-2.7646,0,0,0,0,0,0,0,0,0,0,0,0,0,-2.7713,-2.7713,-2.7726,-2.7726,-2.7726,-2.7711,-2.7711,-2.7711,-2.7662,-2.7661,-2.766,-2.7658,-2.7645,-2.7645,-2.7646,0,0,0,0,0,0,0,0,0,0,0,0,0,-2.771,-2.7713,-2.7726,-2.77,-2.7697,-2.7711,-2.7711,-2.7711,-2.7663,-2.7661,-2.7659,-2.7658,-2.7644,-2.7645,-2.7646,-2.7685,0,0,-2.7649,-2.765,0,0,0,0,0,0,0,0,-2.7711,-2.7711,-2.7704,-2.7701,-2.7699,-2.7687,-2.7701,-2.7702,-2.7663,-2.7676,-2.7659,-2.7657,-2.766,-2.766,-2.7661,-2.7685,-2.7684,-2.7649,-2.765,-2.765,-2.7651,0,0,0,0,0,0,0,-2.7711,-2.7711,-2.772,-2.7704,-2.7701,-2.7689,-2.7687,-2.7701,-2.7677,-2.7674,-2.7671,-2.767,-2.7659,-2.766,-2.766,-2.7684,-2.7649,-2.765,-2.7651,-2.7651,-2.7739,-2.7741,0,0,0,0,0,0,-2.7715,-2.7712,-2.7721,-2.772,-2.7701,-2.769,-2.7688,-2.7692,-2.7677,-2.7673,-2.7671,-2.7668,-2.7659,-2.7659,-2.7659,-2.7704,-2.765,-2.7651,-2.7652,-2.7737,-2.774,-2.7741,0,0,0,0,0,0,-2.7715,-2.7716,-2.7721,-2.7715,-2.7715,-2.7692,-2.7698,-2.7693,-2.7694,-2.7675,-2.767,-2.7677,-2.7658,-2.7658,-2.7679,-2.7703,-2.7652,-2.7653,-2.7735,-2.7738,-2.774,-2.7794,0,0,0,0,0,0,-2.7714,-2.7716,-2.7731,-2.7715,-2.7715,-2.7741,-2.7699,-2.7694,-2.7696,-2.7691,-2.7679,-2.7675,-2.7656,-2.7678,-2.768,-2.7703,-2.7653,-2.7733,-2.7737,-2.774,-2.779,-2.7798,-2.7805,0,0,0,0,0,-2.7714,-2.7746,-2.7732,-2.7733,-2.7733,-2.7743,-2.7742,-2.772,-2.7698,-2.7712,-2.77,-2.7676,-2.77,-2.7681,-2.7683,-2.7707,-2.7732,-2.7736,-2.7739,-2.7787,-2.7797,-2.7805,0,0,0,0,0,0,-2.7765,-2.7744,-2.7727,-2.7756,-2.7751,-2.7734,-2.7752,-2.7731,-2.7733,-2.7729,-2.7701,-2.7699,-2.7724,-2.7717,-2.7696,-2.7743,-2.7712,-2.7716,-2.7747,-2.7756,-2.7764,-2.7765,-2.7654,0,0,0,0,0,-2.778,-2.779,-2.777,-2.7797,-2.7796,-2.7775,-2.7778,-2.7761,-2.7756,-2.7754,-2.7743,-2.7739,-2.7745,-2.775,-2.7755,-2.7789,-2.7786,-2.7806,-2.7814,-2.782,-2.7824,-2.7842,-2.7851,-2.7754,-2.7754,-2.7754,0,0,-2.781,-2.78,-2.7808,-2.7807,-2.7802,-2.7813,-2.7773,-2.7787,-2.7795,-2.7756,-2.7775,-2.7767,-2.7761,-2.7788,-2.78,-2.7783,-2.785,-2.7825,-2.783,-2.7831,-2.7847,-2.7856,-2.7864,-2.7757,-2.7757,-2.7756,0,0,-2.7871,-2.7864,-2.7885,-2.7881,-2.7873,-2.7859,-2.7864,-2.785,-2.7843,-2.7862,-2.7833,-2.7842,-2.7854,-2.7851,-2.7851,-2.7911,-2.7889,-2.7913,-2.7953,-2.797,-2.7978,-2.7984,-2.8006,-2.8014,-2.7917,-2.7918,-2.7918,0,-2.791,-2.7925,-2.7899,-2.7915,-2.7916,-2.788,-2.7902,-2.7899,-2.7894,-2.7896,-2.7877,-2.7891,-2.7885,-2.7911,-2.7926,-2.7927,-2.7932,-2.7915,-2.7979,-2.7985,-2.7991,-2.8011,-2.802,-2.7921,-2.792,-2.792,-2.792,0,-2.7973,-2.7984,-2.8002,-2.7998,-2.8001,-2.8019,-2.7997,-2.8003,-2.7986,-2.7973,-2.7993,-2.7984,-2.7986,-2.7991,-2.7975,-2.8016,-2.8006,-2.7984,-2.7951,-2.8004,-2.8022,-2.803,-2.7925,-2.7924,-2.7923,-2.7922,0,0,-2.8066,-2.8047,-2.8054,-2.8052,-2.8041,-2.8049,-2.8066,-2.8068,-2.8074,-2.8071,-2.8085,-2.8096,-2.8075,-2.8075,-2.8058,-2.8073,-2.8122,-2.8049,-2.8048,-2.8063,-2.8167,-2.8184,-2.8194,-2.8107,-2.8108,-2.8109,-2.8168,0,-2.8124,-2.8152,-2.813,-2.8162,-2.8172,-2.8138,-2.8153,-2.8148,-2.8137,-2.8144,-2.8132,-2.814,-2.8112,-2.8112,-2.8125,-2.8113,-2.8142,-2.8108,-2.812,-2.8121,-2.8123,-2.8203,-2.8222,-2.8277,-2.8175,-2.8176,-2.8177,0,-2.8196,-2.8196,-2.8229,-2.8216,-2.8219,-2.8233,-2.8233,-2.824,-2.8234,-2.8225,-2.8225,-2.8203,-2.822,-2.8188,-2.821,-2.8187,-2.8191,-2.8185,-2.8187,-2.8188,-2.8152,-2.8207,-2.8294,-2.8303,-2.8188,-2.8187,-2.8186,0,-2.8261,-2.827,-2.829,-2.8289,-2.8274,-2.8285,-2.8279,-2.8271,-2.8274,-2.8274,-2.8276,-2.8278,-2.828,-2.8283,-2.8263,-2.8241,-2.8288,-2.8254,-2.8281,-2.8282,-2.8293,-2.8292,-2.8383,-2.8294,-2.8294,-2.8294,-2.8294,0,-2.8328,-2.835,-2.8319,-2.8333,-2.8356,-2.833,-2.8354,-2.8345,-2.8338,-2.8349,-2.832,-2.8331,-2.8304,-2.8312,-2.8296,-2.8317,-2.8318,-2.8312,-2.8307,-2.8314,-2.8315,-2.8317,-2.8313,-2.8296,-2.8296,-2.8295,-2.8295,0,-2.8405,-2.8386,-2.8406,-2.839,-2.8387,-2.8405,-2.8391,-2.8403,-2.8389,-2.8404,-2.8405,-2.8385,-2.8393,-2.8373,-2.8378,-2.8368,-2.8398,-2.8388,-2.84,-2.8397,-2.8426,-2.8424,-2.8521,-2.8532,-2.8436,-2.8437,-2.8438,0,-2.845,-2.8466,-2.8451,-2.8456,-2.8452,-2.8461,-2.8463,-2.8438,-2.8443,-2.8437,-2.8449,-2.8455,-2.8458,-2.8473,-2.8459,-2.8463,-2.8452,-2.8486,-2.8452,-2.8459,-2.8453,-2.8453,-2.8454,-2.8493,-2.8494,-2.8495,-2.8496,0,-2.8531,-2.8521,-2.8526,-2.8527,-2.8531,-2.8531,-2.8529,-2.8535,-2.8509,-2.8515,-2.8522,-2.8525,-2.853,-2.8536,-2.8537,-2.8532,-2.851,-2.8506,-2.8513,-2.852,-2.8528,-2.8525,-2.842,-2.8504,-2.8503,-2.8503,-2.8502,-2.8502,-2.8594,-2.8606,-2.8598,-2.8605,-2.86,-2.8599,-2.8609,-2.8597,-2.8603,-2.8605,-2.859,-2.8602,-2.8595,-2.8594,-2.8591,-2.8599,-2.8584,-2.8593,-2.8596,-2.8599,-2.8604,-2.8526,-2.8599,-2.8599,-2.8599,-2.8598,-2.8598,0,-2.8674,-2.8667,-2.8673,-2.8671,-2.8676,-2.8654,-2.8651,-2.8657,-2.8667,-2.8663,-2.8666,-2.8676,-2.8682,-2.8668,-2.8672,-2.8681,-2.8671,-2.8683,-2.8683,-2.8682,-2.8617,-2.8611,-2.8691,-2.8691,-2.8691,-2.8691,-2.8691,-2.8691,-2.8717,-2.8737,-2.8725,-2.8743,-2.8736,-2.8747,-2.8747,-2.8746,-2.8742,-2.8754,-2.8758,-2.8749,-2.8741,-2.8744,-2.8749,-2.8744,-2.8748,-2.8763,-2.8756,-2.8695,-2.8686,-2.8678,-2.8672,-2.8764,-2.8764,-2.882,-2.882,-2.8821]}]]